Weather History for Jamestown, NY

Change the Weather History Date:

Thursday, January 10, 2013

  Actual Average Record
Temperature  
Mean Temperature 32 °F -  
Max Temperature 37 °F 27 °F 48 °F (1990)
Min Temperature 26 °F 10 °F -9 °F (1981)
Degree Days  
Heating Degree Days 34    
Moisture  
Dew Point 25 °F    
Average Humidity 75    
Maximum Humidity 93    
Minimum Humidity 60    
Precipitation  
Precipitation 0.00 in - - ()
Sea Level Pressure  
Sea Level Pressure 30.47 in    
Wind  
Wind Speed 6 mph (SW)    
Max Wind Speed 12 mph    
Max Gust Speed -    
Visibility 10 miles    
Events      
Averages and records for this station are not official NWS values.
T = Trace of Precipitation, MM = Missing Value Source: NWS Daily Summary

Daily Weather History Graph

Daily Weather History Graph

Search for Another Location

Airport:

Trip Planner

Search our weather history database for the weather conditions in past years. The results will help you decide how hot, cold, wet, or windy it might be!

Date:

Astronomy

Jan. 10, 2013 Rise Set
Actual Time 7:44 AM EST 5:04 PM EST
Civil Twilight 7:13 AM EST 5:36 PM EST
Nautical Twilight 6:38 AM EST 6:11 PM EST
Astronomical Twilight 6:05 AM EST 6:44 PM EST
Moon 6:22 AM EST (1/10) 4:10 PM EST (1/10)
Length of Visible Light 10h 22m
Length of Day
9h 20m
Waning Crescent, 2% of the Moon is Illuminated
Jan 10
Waning Crescent
Jan 11
New
Jan 18
First Quarter
Jan 26
Full
Feb 3
Last Quarter

Hourly Weather History & Observations

Time (EST) Temp. Windchill Dew Point Humidity Pressure Visibility Wind Dir Wind Speed Gust Speed Precip Events Conditions
12:15 AM 33.8 °F 25.3 °F 24.8 °F 70% 30.40 in 10.0 mi WNW 11.5 mph - N/A   Clear
12:35 AM 32.0 °F 24.8 °F 24.8 °F 75% 30.40 in 10.0 mi WNW 8.1 mph - N/A   Clear
12:55 AM 32.0 °F 25.6 °F 24.8 °F 75% 30.40 in 10.0 mi West 6.9 mph - N/A   Clear
1:15 AM 30.2 °F 23.4 °F 24.8 °F 80% 30.41 in 10.0 mi West 6.9 mph - N/A   Clear
1:35 AM 30.2 °F 23.4 °F 24.8 °F 80% 30.41 in 10.0 mi West 6.9 mph - N/A   Clear
1:55 AM 30.2 °F 23.4 °F 24.8 °F 80% 30.41 in 10.0 mi West 6.9 mph - N/A   Clear
2:15 AM 30.2 °F 22.6 °F 23.0 °F 75% 30.42 in 10.0 mi WSW 8.1 mph - N/A   Partly Cloudy
2:35 AM 28.4 °F 20.4 °F 23.0 °F 80% 30.44 in 10.0 mi WSW 8.1 mph - N/A   Partly Cloudy
2:55 AM 28.4 °F 21.2 °F 23.0 °F 80% 30.45 in 10.0 mi West 6.9 mph - N/A   Mostly Cloudy
3:15 AM 30.2 °F 24.3 °F 24.8 °F 80% 30.45 in 10.0 mi West 5.8 mph - N/A   Overcast
3:35 AM 30.2 °F 23.4 °F 24.8 °F 80% 30.45 in 10.0 mi West 6.9 mph - N/A   Overcast
3:55 AM 30.2 °F 22.6 °F 24.8 °F 80% 30.45 in 10.0 mi West 8.1 mph - N/A   Mostly Cloudy
4:15 AM 30.2 °F 23.4 °F 24.8 °F 80% 30.44 in 10.0 mi WNW 6.9 mph - N/A   Mostly Cloudy
4:35 AM 30.2 °F 22.6 °F 24.8 °F 80% 30.44 in 10.0 mi West 8.1 mph - N/A   Partly Cloudy
4:55 AM 30.2 °F 22.6 °F 24.8 °F 80% 30.44 in 10.0 mi WNW 8.1 mph - N/A   Clear
5:15 AM 30.2 °F 23.4 °F 24.8 °F 80% 30.45 in 10.0 mi WNW 6.9 mph - N/A   Clear
5:35 AM 30.2 °F 24.3 °F 24.8 °F 80% 30.46 in 10.0 mi WNW 5.8 mph - N/A   Scattered Clouds
5:55 AM 28.4 °F 23.3 °F 24.8 °F 86% 30.46 in 10.0 mi West 4.6 mph - N/A   Scattered Clouds
6:15 AM 28.4 °F 24.6 °F 24.8 °F 86% 30.47 in 10.0 mi West 3.5 mph - N/A   Mostly Cloudy
6:35 AM 28.4 °F - 24.8 °F 86% 30.48 in 10.0 mi Calm Calm - N/A   Mostly Cloudy
6:55 AM 28.4 °F - 24.8 °F 86% 30.50 in 10.0 mi Calm Calm - N/A   Mostly Cloudy
7:35 AM 28.4 °F 21.2 °F 24.8 °F 86% 30.52 in 10.0 mi WSW 6.9 mph - N/A   Clear
7:55 AM 28.4 °F 21.2 °F 24.8 °F 86% 30.54 in 10.0 mi West 6.9 mph - N/A   Clear
8:15 AM 28.4 °F 21.2 °F 24.8 °F 86% 30.55 in 10.0 mi West 6.9 mph - N/A   Clear
8:35 AM 28.4 °F 23.3 °F 26.6 °F 93% 30.55 in 10.0 mi WNW 4.6 mph - N/A   Clear
8:55 AM 26.6 °F 22.6 °F 21.2 °F 80% 30.55 in 10.0 mi NNE 3.5 mph - N/A   Clear
9:15 AM 28.4 °F 24.6 °F 24.8 °F 86% 30.56 in 10.0 mi NE 3.5 mph - N/A   Clear
9:35 AM 28.4 °F - 26.6 °F 93% 30.56 in 10.0 mi Calm Calm - N/A   Mostly Cloudy
9:55 AM 28.4 °F - 24.8 °F 86% 30.57 in 10.0 mi Calm Calm - N/A   Overcast
10:15 AM 28.4 °F - 24.8 °F 86% 30.56 in 10.0 mi Calm Calm - N/A   Overcast
10:35 AM 30.2 °F - 24.8 °F 80% 30.57 in 10.0 mi Calm Calm - N/A   Overcast
10:55 AM 30.2 °F - 26.6 °F 86% 30.57 in 10.0 mi Calm Calm - N/A   Overcast
11:15 AM 32.0 °F - 26.6 °F 80% 30.56 in 10.0 mi Calm Calm - N/A   Overcast
11:35 AM 33.8 °F - 26.6 °F 75% 30.54 in 10.0 mi Calm Calm - N/A   Overcast
11:55 AM 32.0 °F - 26.6 °F 80% 30.53 in 10.0 mi Calm Calm - N/A   Overcast
12:15 PM 33.8 °F - 26.6 °F 75% 30.52 in 10.0 mi Calm Calm - N/A   Scattered Clouds
12:35 PM 33.8 °F 28.6 °F 24.8 °F 70% 30.52 in 10.0 mi WSW 5.8 mph - N/A   Partly Cloudy
12:55 PM 33.8 °F 28.6 °F 24.8 °F 70% 30.51 in 10.0 mi WSW 5.8 mph - N/A   Clear
1:15 PM 33.8 °F - 24.8 °F 70% 30.50 in 10.0 mi Calm Calm - N/A   Clear
1:35 PM 33.8 °F - 26.6 °F 75% 30.50 in 10.0 mi Calm Calm - N/A   Clear
1:55 PM 35.6 °F - 24.8 °F 65% 30.50 in 10.0 mi Calm Calm - N/A   Clear
2:15 PM 35.6 °F 32.8 °F 24.8 °F 65% 30.50 in 10.0 mi WSW 3.5 mph - N/A   Clear
2:35 PM 35.6 °F - 26.6 °F 70% 30.50 in 10.0 mi Calm Calm - N/A   Clear
2:55 PM 37.4 °F - 26.6 °F 65% 30.48 in 10.0 mi Calm Calm - N/A   Clear
3:15 PM 35.6 °F 32.8 °F 24.8 °F 65% 30.48 in 10.0 mi South 3.5 mph - N/A   Clear
3:35 PM 35.6 °F 32.8 °F 24.8 °F 65% 30.48 in 10.0 mi SSE 3.5 mph - N/A   Clear
3:55 PM 35.6 °F - 24.8 °F 65% 30.48 in 10.0 mi Calm Calm - N/A   Clear
4:15 PM 35.6 °F - 24.8 °F 65% 30.47 in 10.0 mi Calm Calm - N/A   Clear
4:35 PM 35.6 °F 32.8 °F 24.8 °F 65% 30.47 in 10.0 mi SE 3.5 mph - N/A   Clear
4:55 PM 35.6 °F 32.8 °F 26.6 °F 70% 30.47 in 10.0 mi SE 3.5 mph - N/A   Clear
5:15 PM 33.8 °F 30.8 °F 24.8 °F 70% 30.47 in 10.0 mi East 3.5 mph - N/A   Clear
5:35 PM 33.8 °F 30.8 °F 24.8 °F 70% 30.46 in 10.0 mi East 3.5 mph - N/A   Clear
5:55 PM 33.8 °F 28.6 °F 24.8 °F 70% 30.46 in 10.0 mi East 5.8 mph - N/A   Clear
6:15 PM 33.8 °F 29.6 °F 24.8 °F 70% 30.46 in 10.0 mi East 4.6 mph - N/A   Clear
6:35 PM 33.8 °F - 24.8 °F 70% 30.46 in 10.0 mi Calm Calm - N/A   Clear
6:55 PM 33.8 °F - 24.8 °F 70% 30.46 in 10.0 mi Calm Calm - N/A   Clear
7:15 PM 33.8 °F 30.8 °F 24.8 °F 70% 30.45 in 10.0 mi ESE 3.5 mph - N/A   Partly Cloudy
7:35 PM 33.8 °F 30.8 °F 24.8 °F 70% 30.46 in 10.0 mi SSE 3.5 mph - N/A   Clear
7:55 PM 32.0 °F 27.5 °F 24.8 °F 75% 30.45 in 10.0 mi SSE 4.6 mph - N/A   Clear
8:15 PM 33.8 °F 29.6 °F 24.8 °F 70% 30.44 in 10.0 mi SSE 4.6 mph - N/A   Clear
8:35 PM 33.8 °F 28.6 °F 24.8 °F 70% 30.43 in 10.0 mi South 5.8 mph - N/A   Clear
8:55 PM 33.8 °F 28.6 °F 24.8 °F 70% 30.42 in 10.0 mi SSE 5.8 mph - N/A   Clear
9:15 PM 33.8 °F 27.7 °F 24.8 °F 70% 30.40 in 10.0 mi SSE 6.9 mph - N/A   Clear
9:35 PM 35.6 °F 29.9 °F 24.8 °F 65% 30.40 in 10.0 mi SSE 6.9 mph - N/A   Clear
9:55 PM 33.8 °F 30.8 °F 24.8 °F 70% 30.39 in 10.0 mi ESE 3.5 mph - N/A   Clear
10:15 PM 33.8 °F 30.8 °F 24.8 °F 70% 30.38 in 10.0 mi SSE 3.5 mph - N/A   Clear
10:35 PM 33.8 °F 28.6 °F 24.8 °F 70% 30.37 in 10.0 mi SSE 5.8 mph - N/A   Clear
10:55 PM 33.8 °F 27.7 °F 24.8 °F 70% 30.36 in 10.0 mi SE 6.9 mph - N/A   Clear
11:15 PM 33.8 °F 28.6 °F 24.8 °F 70% 30.35 in 10.0 mi SSE 5.8 mph - N/A   Clear
11:35 PM 35.6 °F 29.2 °F 24.8 °F 65% 30.34 in 10.0 mi SSE 8.1 mph - N/A   Clear
11:55 PM 35.6 °F 30.7 °F 23.0 °F 60% 30.32 in 10.0 mi SSE 5.8 mph - N/A   Clear